Theta_e
326 321 316 311 299 298 294 298 303 304 304 313 313 310 306 307 304 298 319 320 319 317 316 317 319 321 323 324 325 327 328 331 334 339 341 341 341 342 341 343 343 343 342 343 343 344 343 342 342
320 318 312 306 293 291 293 300 300 305 311 312 310 308 305 304 313 314 315 320 319 316 314 314 317 319 320 321 322 325 326 327 329 335 338 340 340 340 341 341 342 343 342 342 343 343 343 341 342
320 316 305 299 295 290 293 299 301 308 311 309 307 308 305 306 312 314 317 319 318 313 312 313 315 316 318 319 320 322 323 325 327 328 333 338 339 339 340 340 341 342 342 343 343 343 342 340 341
312 309 304 293 293 296 296 300 304 306 309 311 308 303 307 314 313 316 318 318 314 311 311 313 313 314 315 315 317 319 320 322 324 326 327 332 336 338 338 339 340 340 341 341 341 342 342 341 341
310 306 296 295 295 298 299 301 301 302 303 304 305 300 303 312 316 315 314 315 312 308 310 311 311 311 312 313 314 315 316 318 321 323 326 326 330 334 336 336 337 338 339 339 339 341 342 341 340
304 302 294 292 295 299 300 302 300 300 302 303 300 300 303 313 312 311 312 313 312 308 309 310 311 308 309 310 311 312 313 315 316 319 322 324 326 329 333 335 334 334 335 338 339 340 340 341 339
303 299 294 294 294 295 300 303 298 300 300 301 304 297 304 309 311 310 311 311 311 309 308 307 308 310 310 310 308 309 311 312 313 315 319 320 323 326 330 331 332 332 334 335 338 339 336 338 336
302 298 294 293 293 294 300 300 302 300 298 303 304 296 295 307 310 310 311 310 309 309 308 307 306 306 305 305 310 309 310 310 312 313 316 319 321 326 328 329 330 330 331 335 335 336 335 332 331
306 293 292 294 294 296 301 297 302 302 299 300 302 300 305 309 309 307 308 309 308 310 307 306 305 305 305 304 305 310 312 312 314 312 314 315 317 319 323 324 328 329 328 330 332 334 332 330 329
298 294 296 297 296 295 298 297 298 296 296 298 300 303 304 306 305 305 305 305 306 306 306 306 305 304 304 306 304 303 304 303 303 304 306 311 314 318 320 319 322 326 327 328 332 333 329 326 325
299 294 297 298 298 298 297 296 298 294 294 295 295 298 302 302 303 303 304 304 304 304 305 306 305 303 302 302 302 302 301 301 301 302 303 305 313 315 320 320 322 323 317 326 327 326 326 325 323
293 298 297 299 299 298 295 296 295 296 295 298 295 299 299 302 301 302 303 304 303 303 304 306 305 304 302 302 301 301 300 300 300 302 303 304 307 313 315 319 320 320 325 324 323 322 324 323 322
295 296 297 298 297 296 297 293 293 293 296 298 300 301 299 300 301 302 303 304 303 302 304 305 305 303 303 302 301 300 300 299 300 301 304 304 306 312 315 316 318 319 324 324 322 320 321 321 320
297 297 296 296 296 296 293 292 292 293 296 296 298 297 299 300 301 301 302 303 304 305 303 305 305 303 303 300 300 299 299 300 300 301 303 304 307 312 313 315 317 319 324 322 321 320 320 319 320
297 292 295 294 295 294 294 292 291 295 297 295 296 296 298 299 300 300 302 303 302 303 303 304 304 303 301 300 299 299 299 300 300 302 303 305 306 310 313 314 317 318 321 321 321 320 320 319 319
293 292 288 293 295 294 292 287 294 294 294 294 294 294 296 298 299 300 303 302 301 300 302 303 302 301 300 299 299 299 299 298 300 302 303 305 306 310 312 313 315 319 320 319 318 319 318 317 316
292 286 289 290 294 293 291 288 292 294 294 292 293 294 296 297 298 299 300 300 300 301 301 300 300 299 299 299 299 299 299 299 301 301 302 304 308 310 310 312 314 316 318 318 317 317 317 315 315
287 287 289 286 290 290 288 289 294 296 293 293 293 294 294 295 295 298 299 299 299 298 298 298 298 297 298 298 298 298 300 303 303 303 304 307 308 310 310 311 314 315 317 318 317 316 317 315 315
289 287 286 289 290 287 287 289 293 295 290 289 290 291 292 293 296 298 298 298 297 297 296 296 296 296 296 294 294 296 296 297 301 303 304 306 308 310 309 311 312 314 316 317 317 316 315 313 315
289 286 286 290 290 287 288 288 292 291 290 289 290 292 291 293 294 296 296 296 296 295 295 295 296 296 295 294 295 296 296 299 301 303 304 307 307 307 308 310 311 313 315 316 316 316 313 313 314
288 286 286 285 289 290 287 286 286 289 291 292 291 292 293 293 293 294 295 295 295 294 294 295 295 294 294 295 296 297 298 300 301 302 303 305 306 306 308 309 311 312 314 315 314 315 314 311 313
286 288 288 288 285 282 285 280 287 287 288 290 291 291 291 292 293 294 295 294 294 294 293 294 294 294 294 295 295 294 295 294 299 297 299 300 304 305 308 309 309 311 313 313 315 316 315 314 309
288 290 287 286 283 282 283 279 285 286 285 288 288 291 291 293 294 294 294 295 294 294 292 292 293 293 294 295 295 294 296 297 299 300 299 302 304 304 306 306 307 308 311 313 316 315 315 315 311
291 288 286 285 284 278 281 279 283 283 287 287 288 290 292 292 293 294 295 295 293 293 292 292 291 291 294 295 295 296 296 296 297 298 298 301 302 302 304 305 306 307 309 312 316 317 315 314 313
288 283 280 279 277 278 281 278 284 287 288 288 288 289 291 292 292 293 292 292 292 291 291 292 290 290 294 295 295 297 296 296 296 297 297 299 300 300 301 302 303 306 309 311 314 317 315 315 314
284 285 282 275 279 280 279 279 287 289 290 290 291 291 292 292 293 293 293 293 292 292 291 290 289 291 294 295 294 297 297 296 296 294 294 296 296 299 301 302 304 305 307 310 313 317 316 316 315
283 279 285 279 274 278 283 286 287 288 287 288 288 290 290 291 292 293 293 292 291 290 290 289 289 293 294 293 293 295 296 296 296 296 295 295 297 299 300 301 302 304 306 310 313 316 316 316 315
284 286 278 281 274 276 281 283 284 285 287 288 289 289 291 291 291 292 292 292 291 290 289 288 290 293 293 293 293 296 296 296 296 295 295 296 297 299 299 300 302 304 307 312 314 315 317 316 316
280 280 281 284 282 278 276 283 291 290 289 289 290 291 291 290 291 292 291 291 290 289 288 287 291 293 294 294 296 295 295 295 296 295 296 297 297 298 299 300 302 305 310 313 316 317 317 315 315
283 283 284 282 280 278 280 282 290 290 287 292 292 292 290 290 291 291 291 290 289 288 287 287 291 292 292 294 295 294 294 295 296 295 296 297 297 298 299 300 303 310 314 315 315 315 315 314 313
Wind_Speed
15 9 4 3 1 3 8 1 7 4 2 5 4 4 4 5 4 1 6 6 4 5 5 9 9 9 10 11 12 13 14 15 14 15 14 10 9 9 9 9 9 11 14 13 13 14 13 11 13
8 12 3 4 2 5 2 7 6 8 9 7 3 2 4 2 6 8 7 6 4 5 6 8 8 9 10 10 11 12 13 14 13 15 15 14 11 11 10 9 10 11 12 12 14 13 14 12 14
8 8 3 3 5 6 3 6 6 8 5 1 1 0 3 3 6 6 7 7 4 7 5 7 7 8 10 11 11 11 12 13 13 13 15 16 15 11 12 12 10 11 13 14 16 15 14 17 16
5 3 4 3 9 2 4 6 6 7 3 4 4 5 4 6 3 6 8 5 3 6 6 7 6 7 9 10 10 11 12 12 12 12 12 14 15 13 10 12 13 10 12 14 16 15 15 19 19
4 4 4 5 9 2 5 4 2 3 3 6 5 2 3 6 9 8 6 4 1 5 6 4 4 6 8 9 10 12 12 12 12 12 12 12 14 15 12 8 10 9 9 11 14 15 17 22 23
4 2 4 6 4 5 3 5 1 3 2 6 2 6 1 8 7 6 5 5 5 3 5 3 3 0 4 6 8 10 12 12 12 13 12 11 12 13 14 11 7 9 8 10 12 14 13 27 24
3 3 7 7 8 4 5 7 3 5 5 4 8 4 3 7 6 7 5 3 5 2 2 0 0 0 5 5 2 6 10 12 13 13 13 13 13 13 10 10 6 8 9 9 10 6 7 9 18
3 2 7 5 2 3 5 1 4 5 1 2 4 3 1 6 8 5 3 0 2 2 4 3 2 3 1 3 5 4 7 11 12 13 12 11 14 12 8 5 7 5 7 10 3 13 24 18 17
2 3 6 6 4 3 7 1 6 3 4 2 4 3 6 8 7 4 4 3 3 3 4 3 2 2 2 4 3 5 5 8 8 9 11 9 5 6 6 10 6 4 3 5 6 16 19 21 19
3 3 5 3 5 5 5 3 6 2 5 7 8 8 9 7 5 6 6 5 5 6 5 5 2 1 2 4 6 5 4 4 4 6 7 5 7 5 9 6 8 4 4 3 4 18 19 8 6
3 4 5 7 7 7 5 5 5 4 7 6 6 6 11 9 8 7 6 6 5 3 2 3 3 1 2 4 3 2 2 3 3 6 5 5 5 5 5 3 3 3 6 3 6 11 6 13 4
4 6 3 3 4 4 3 5 5 9 8 4 3 6 2 8 8 8 7 6 4 2 2 3 5 2 1 1 3 3 3 3 3 4 6 3 3 4 5 4 4 3 3 5 6 5 9 10 11
5 5 3 3 3 7 6 8 8 12 10 5 8 8 4 5 7 7 6 4 1 3 3 2 5 3 2 2 2 3 3 3 3 4 5 4 3 4 5 4 4 4 1 4 7 8 9 14 13
4 6 8 3 6 5 5 5 1 4 3 6 9 10 9 8 8 5 6 5 4 5 2 1 3 3 2 2 3 3 3 4 3 4 4 5 4 4 5 5 4 3 2 2 7 9 10 13 11
5 6 7 9 5 3 3 8 13 10 7 5 6 6 8 9 8 7 6 4 1 3 3 3 3 5 2 3 4 3 4 3 3 4 6 2 4 6 5 4 5 3 1 5 4 9 9 10 11
4 3 3 3 4 2 1 8 4 6 7 8 9 8 8 8 6 7 6 4 5 3 3 6 4 3 1 3 3 3 4 4 4 4 3 4 4 7 4 4 4 3 2 4 4 5 10 11 11
5 5 5 5 2 2 6 8 4 7 8 8 8 9 9 9 9 8 6 7 6 5 6 6 5 2 0 3 3 4 5 3 3 3 3 5 5 5 4 4 3 5 3 5 4 3 8 9 10
2 5 2 4 4 5 8 19 17 14 11 11 10 9 7 9 7 8 9 7 6 6 4 5 3 2 1 3 3 3 4 4 4 4 4 4 4 4 3 4 2 5 3 5 5 6 3 10 11
4 6 8 8 3 1 8 15 12 9 2 4 5 6 7 6 9 9 7 7 6 4 4 4 3 2 1 2 2 3 3 4 2 3 5 6 6 3 4 5 2 2 3 3 8 9 8 6 10
3 6 6 2 3 1 8 18 15 4 4 3 3 0 3 8 8 7 7 7 5 6 4 4 2 2 2 2 2 0 1 3 2 2 4 3 5 5 5 6 3 3 2 5 4 5 6 5 10
5 5 3 3 8 7 9 9 3 2 3 5 3 4 6 8 8 8 7 7 5 5 4 4 4 2 2 3 2 2 3 1 2 2 2 3 3 4 4 6 5 3 3 2 5 6 4 9 5
4 3 3 4 6 4 2 8 4 5 5 5 7 5 6 5 4 6 6 6 6 5 6 4 3 1 3 3 3 3 3 3 3 1 3 4 1 3 4 5 5 3 3 3 6 6 5 10 12
1 2 3 2 2 5 3 0 5 4 5 6 6 7 6 8 8 6 7 7 7 5 4 4 3 0 3 2 2 3 3 3 3 2 4 2 3 3 3 3 4 3 3 2 7 7 6 7 10
5 2 2 0 1 2 1 2 6 3 5 7 6 7 7 7 7 7 8 7 7 5 3 2 1 2 2 1 4 4 4 4 4 4 3 3 1 2 2 3 4 4 3 2 2 7 9 6 9
3 1 4 5 3 6 1 0 10 2 5 8 10 8 8 8 7 8 8 7 7 7 5 3 1 3 2 2 4 4 3 5 6 5 4 5 3 2 3 4 3 3 3 3 3 6 9 9 8
6 3 6 6 3 3 3 7 6 4 7 6 7 9 8 8 6 6 6 7 7 7 5 4 2 3 2 4 4 3 4 3 3 4 4 4 3 3 4 4 3 4 5 4 3 1 7 7 8
5 4 2 6 1 3 5 7 1 4 3 5 6 5 7 7 7 8 7 6 8 7 6 4 4 4 3 4 3 3 3 4 4 4 3 3 4 4 5 4 5 5 5 4 3 2 6 8 6
2 2 4 2 3 5 5 5 7 5 8 8 8 9 7 7 8 7 8 8 6 7 6 4 3 6 5 1 1 3 4 4 4 4 4 5 5 5 6 6 4 5 6 6 6 4 6 8 6
3 2 4 0 3 6 2 7 5 5 9 10 9 9 8 8 7 7 8 8 8 7 6 5 4 5 2 1 4 3 3 4 4 3 5 6 6 6 5 5 5 6 7 7 7 7 9 7 7
3 3 7 5 6 1 3 9 2 5 2 6 9 8 7 8 7 6 9 10 8 7 6 5 5 6 2 1 3 3 3 4 4 5 6 6 7 6 5 4 6 7 6 6 7 7 7 8 7
Wind_Direction
300 262 260 291 246 213 264 255 65 125 157 73 55 7 15 306 358 289 116 125 130 95 83 75 31 20 16 11 6 3 1 356 350 348 351 335 323 296 284 272 252 239 236 234 223 203 200 185 160
305 300 239 264 236 235 257 61 126 55 94 82 121 238 231 123 86 121 140 152 140 104 68 73 31 19 16 10 8 4 1 358 349 347 346 347 329 313 278 266 262 254 250 246 239 226 208 189 169
260 272 270 208 227 252 29 64 61 79 93 226 100 2 321 77 80 114 102 135 168 100 71 77 32 21 16 13 7 5 359 356 353 343 338 345 344 332 317 287 259 253 255 250 247 230 220 193 178
299 214 257 267 265 309 28 63 50 109 96 72 344 277 98 59 99 75 130 145 141 101 82 84 40 19 13 10 6 2 357 352 350 347 336 335 334 339 337 337 293 260 255 252 248 240 219 198 181
231 266 269 229 255 128 93 53 17 202 138 158 163 239 141 120 90 113 143 133 110 75 82 89 56 16 4 1 2 359 354 349 344 342 340 330 331 331 327 332 358 342 297 270 251 245 223 196 176
275 227 276 254 323 119 104 67 152 255 234 113 345 257 93 119 138 157 131 155 105 46 88 88 134 119 352 354 355 351 346 344 340 337 335 333 324 324 321 320 346 333 319 316 254 239 247 208 162
255 293 262 295 308 355 59 57 241 251 227 198 132 309 92 153 166 130 144 117 126 132 102 338 354 11 243 255 262 344 346 342 337 335 331 329 317 309 306 304 302 307 331 316 286 234 133 72 125
322 283 272 256 306 14 79 96 35 345 347 47 74 228 341 146 128 100 129 103 211 211 163 232 213 209 328 307 167 340 330 337 331 326 316 307 304 314 279 299 255 271 340 0 47 114 122 133 129
264 280 269 331 42 75 120 245 118 87 325 123 153 290 108 88 107 160 196 212 255 249 224 217 185 309 4 290 116 356 330 318 330 340 328 322 318 333 340 329 322 263 327 2 67 141 142 149 146
246 261 338 13 16 354 350 160 308 194 244 219 214 211 131 136 180 220 223 234 233 218 203 175 194 146 348 310 32 325 349 339 342 335 321 329 320 322 312 293 291 253 246 276 119 156 121 132 124
235 239 38 30 31 0 318 310 220 231 260 242 216 216 167 164 200 222 239 247 248 259 31 135 164 119 357 6 329 342 345 333 345 303 349 321 320 318 303 307 292 208 209 205 132 133 123 126 114
277 243 23 352 76 291 261 6 285 242 238 99 80 54 47 163 199 218 219 236 260 332 250 214 135 99 315 26 306 353 343 322 303 341 313 306 314 312 311 311 298 260 186 167 142 154 130 132 109
223 295 24 271 272 254 285 258 246 268 265 242 175 129 220 205 216 224 216 226 264 270 278 313 130 130 306 21 332 335 319 311 322 310 312 312 315 316 307 303 298 292 319 173 153 138 144 141 125
8 312 282 272 259 249 252 267 344 241 134 247 197 180 194 228 222 227 215 224 218 229 211 165 127 122 18 323 324 320 312 302 338 310 311 325 340 322 305 318 305 289 40 170 160 149 145 144 128
291 292 243 217 222 285 3 273 226 235 146 204 192 232 201 211 217 225 219 232 108 40 61 63 101 94 16 331 334 327 306 338 319 310 300 325 340 309 308 315 316 326 171 139 155 151 145 138 127
247 223 284 89 150 157 266 276 152 112 156 210 227 194 190 215 214 211 218 182 83 97 117 99 80 97 348 335 324 316 327 329 311 288 313 14 330 314 316 318 324 339 253 112 95 166 150 132 124
201 266 212 153 192 354 193 280 159 180 197 222 235 207 187 189 205 197 168 120 126 122 125 140 145 155 334 294 310 294 278 286 291 320 324 13 294 303 327 312 327 324 290 147 125 62 129 130 127
312 254 297 246 161 207 257 258 268 244 197 213 216 231 210 187 185 127 104 98 121 123 114 118 136 168 333 302 304 328 340 356 346 347 349 315 298 289 317 303 339 319 305 147 145 107 116 118 114
334 307 295 296 128 22 253 269 272 269 339 330 278 265 226 207 122 110 116 126 125 127 150 165 108 56 12 6 353 6 359 344 347 349 316 323 322 350 331 310 7 315 297 163 159 154 135 129 127
271 283 286 296 84 98 291 287 285 97 97 66 326 200 177 120 107 132 146 148 184 166 167 107 121 45 24 39 348 191 280 320 300 272 271 342 350 345 320 327 326 303 290 135 118 119 137 163 148
226 245 347 320 326 239 291 272 173 120 122 131 234 25 116 133 155 165 160 172 165 156 156 116 79 25 27 40 323 4 341 353 285 305 332 32 15 337 324 317 327 349 336 152 157 143 154 153 138
255 27 52 329 18 284 19 284 261 153 179 192 169 174 171 137 122 142 144 148 148 101 87 92 95 1 69 24 354 11 12 336 323 332 318 323 12 1 342 350 337 338 321 316 156 160 171 152 146
142 32 49 14 306 357 220 240 259 128 202 193 180 182 164 164 166 172 139 98 93 113 139 116 134 236 66 43 30 10 4 329 299 310 320 267 42 4 11 340 330 335 310 305 162 165 149 156 157
133 147 124 56 19 345 200 140 282 187 219 141 163 157 165 140 125 110 103 113 128 115 140 147 112 105 83 36 47 23 3 336 332 326 341 3 54 337 13 345 317 313 301 298 241 166 158 144 154
242 105 359 346 9 227 107 49 248 193 105 154 169 177 166 155 154 163 153 173 154 161 159 145 124 92 81 67 56 22 7 326 316 340 354 343 8 351 347 335 312 319 302 293 320 175 150 155 147
188 167 166 209 221 271 8 244 261 78 110 88 136 160 157 156 159 151 159 144 138 135 145 149 135 100 59 71 52 20 1 7 333 357 335 328 324 315 303 282 295 286 267 256 250 153 150 151 148
195 188 169 104 59 39 221 261 184 132 147 180 189 176 185 174 165 159 138 138 136 146 148 145 125 118 84 57 40 17 38 355 330 344 318 294 291 299 302 303 284 280 255 238 220 179 142 142 147
272 321 99 338 162 245 284 266 238 218 208 204 201 202 198 161 146 141 144 137 129 130 129 121 96 99 84 40 30 29 23 347 355 336 315 301 298 305 299 297 277 251 221 203 200 188 151 149 152
170 217 226 128 171 173 230 262 211 154 183 191 193 192 186 162 169 166 148 134 134 131 141 147 128 129 126 264 72 40 336 342 329 307 315 325 316 303 299 280 270 235 198 185 184 153 145 144 152
327 227 188 145 220 250 149 272 140 118 100 144 175 157 156 157 149 140 142 135 136 146 145 152 134 110 116 63 76 59 348 337 327 360 338 323 305 308 291 271 246 192 181 156 125 124 141 150 148